Aralik, Turkey

10:57 AM +03 on January 16, 2018 (GMT +0300)
Aralik

Weather History for 17038 - August, 2013

Change the Weather History Date:

Saturday, August 3, 2013

  Actual Average Record
Temperature  
Mean Temperature 76 °F -  
Max Temperature 81 °F 77 °F - ()
Min Temperature 70 °F 68 °F - ()
Cooling Degree Days 10    
Growing Degree Days 26 (Base 50)    
Moisture  
Dew Point 60 °F    
Average Humidity 58    
Maximum Humidity 73    
Minimum Humidity 33    
Precipitation  
Precipitation 0.00 in - - ()
Sea Level Pressure  
Sea Level Pressure 29.94 in    
Wind  
Wind Speed 7 mph ()    
Max Wind Speed 14 mph    
Max Gust Speed -    
Visibility 6.5 miles    
Events      
T = Trace of Precipitation, MM = Missing Value Source: Averaged Metar Reports

Daily Weather History Graph

Daily Weather History Graph

Search for Another Location

Airport or City:

Trip Planner

Search our weather history database for the weather conditions in past years. The results will help you decide how hot, cold, wet, or windy it might be!

Date:

Astronomy

Aug. 03, 2013 Rise Set
Actual Time 5:18 AM EEST 7:35 PM EEST
Civil Twilight 4:48 AM EEST 8:05 PM EEST
Nautical Twilight 4:10 AM EEST 8:43 PM EEST
Astronomical Twilight 3:28 AM EEST 9:24 PM EEST
Moon 2:10 AM EEST (8/3) 5:02 PM EEST (8/3)
Length of Visible Light 15h 17m
Length of Day
14h 16m
Waning Crescent, 11% of the Moon is Illuminated
Aug 3
Waning Crescent
Aug 7
New
Aug 14
First Quarter
Aug 21
Full
Aug 28
Last Quarter

Hourly Weather History & Observations

Time (EEST) Temp. Heat Index Dew Point Humidity Pressure Visibility Wind Dir Wind Speed Gust Speed Precip Events Conditions
12:20 AM 71.6 °F - 60.8 °F 69% 29.95 in 6.2 mi SSW 9.2 mph - N/A   Partly Cloudy
12:50 AM 71.6 °F - 60.8 °F 69% 29.95 in 6.2 mi SSW 5.8 mph - N/A   Partly Cloudy
1:20 AM 71.6 °F - 57.2 °F 60% 29.95 in 6.2 mi SSW 8.1 mph - N/A   Partly Cloudy
1:50 AM 71.6 °F - 57.2 °F 60% 29.95 in 6.2 mi South 8.1 mph - N/A   Partly Cloudy
2:20 AM 73.4 °F - 55.4 °F 53% 29.95 in 6.2 mi SSW 9.2 mph - N/A   Partly Cloudy
2:50 AM 73.4 °F - 55.4 °F 53% 29.92 in 6.2 mi SSW 10.4 mph - N/A   Scattered Clouds
3:00 AM 73 °F - 54 °F 42% 29.94 in 6 mi SSW 10.4 mph - -   Scattered Clouds
3:20 AM 73.4 °F - 55.4 °F 53% 29.92 in 6.2 mi SSW 12.7 mph - N/A   Scattered Clouds
3:50 AM 73.4 °F - 55.4 °F 53% 29.92 in 6.2 mi SSW 13.8 mph - N/A   Scattered Clouds
4:20 AM 73.4 °F - 53.6 °F 50% 29.92 in 6.2 mi SSW 13.8 mph - N/A   Scattered Clouds
4:50 AM 73.4 °F - 53.6 °F 50% 29.92 in 6.2 mi SSW 12.7 mph - N/A   Scattered Clouds
5:20 AM 73.4 °F - 53.6 °F 50% 29.92 in 6.2 mi SSW 12.7 mph - N/A   Mostly Cloudy
5:50 AM 73.4 °F - 51.8 °F 47% 29.92 in 6.2 mi SSW 12.7 mph - N/A   Mostly Cloudy
6:20 AM 75.2 °F - 51.8 °F 44% 29.92 in 6.2 mi SSW 11.5 mph - N/A   Mostly Cloudy
6:50 AM 75.2 °F - 57.2 °F 53% 29.92 in 6.2 mi ESE 3.5 mph - N/A   Mostly Cloudy
7:20 AM 73.4 °F - 59.0 °F 61% 29.92 in 6.2 mi Variable 2.3 mph - N/A   Mostly Cloudy
7:50 AM 75.2 °F - 59.0 °F 57% 29.92 in 6.2 mi ENE 1.2 mph - N/A   Mostly Cloudy
8:20 AM 75.2 °F - 59.0 °F 57% 29.92 in 6.2 mi Calm Calm - N/A   Mostly Cloudy
8:50 AM 77.0 °F - 51.8 °F 41% 29.92 in 6.2 mi WSW 6.9 mph - N/A   Mostly Cloudy
9:00 AM 76 °F - 52 °F 33% 29.94 in 12 mi WSW 6.9 mph - -   Partly Cloudy
9:20 AM 75.2 °F - 55.4 °F 50% 29.95 in 6.2 mi WNW 6.9 mph - N/A   Mostly Cloudy
9:50 AM 77.0 °F - 59.0 °F 54% 29.95 in 6.2 mi West 4.6 mph - N/A   Mostly Cloudy
10:20 AM 77.0 °F - 60.8 °F 57% 29.95 in 6.2 mi NNW 4.6 mph - N/A   Mostly Cloudy
10:50 AM 77.0 °F - 64.4 °F 65% 29.95 in 6.2 mi NNW 5.8 mph - N/A   Mostly Cloudy
11:20 AM 77.0 °F - 64.4 °F 65% 29.95 in 6.2 mi North 5.8 mph - N/A   Mostly Cloudy
11:50 AM 78.8 °F - 64.4 °F 61% 29.92 in 6.2 mi Variable 5.8 mph - N/A   Scattered Clouds
12:20 PM 78.8 °F - 64.4 °F 61% 29.92 in 6.2 mi Variable 5.8 mph - N/A   Scattered Clouds
12:50 PM 78.8 °F - 66.2 °F 65% 29.92 in 6.2 mi NNW 6.9 mph - N/A   Scattered Clouds
1:20 PM 78.8 °F - 64.4 °F 61% 29.95 in 6.2 mi NNW 6.9 mph - N/A   Scattered Clouds
1:50 PM 78.8 °F - 64.4 °F 61% 29.95 in 6.2 mi NNW 5.8 mph - N/A   Scattered Clouds
2:20 PM 80.6 °F 81.8 °F 62.6 °F 54% 29.95 in 6.2 mi North 3.5 mph - N/A   Mostly Cloudy
2:50 PM 80.6 °F 81.5 °F 60.8 °F 51% 29.95 in 6.2 mi North 5.8 mph - N/A   Mostly Cloudy
3:00 PM 81 °F - 61 °F 40% 29.95 in 12 mi North 5.8 mph - -   Scattered Clouds
3:20 PM 78.8 °F - 64.4 °F 61% 29.95 in 6.2 mi NNW 5.8 mph - N/A   Mostly Cloudy
3:50 PM 78.8 °F - 64.4 °F 61% 29.95 in 6.2 mi NNW 5.8 mph - N/A   Mostly Cloudy
4:20 PM 77.0 °F - 64.4 °F 65% 29.95 in 6.2 mi Variable 2.3 mph - N/A   Mostly Cloudy
4:50 PM 77.0 °F - 62.6 °F 61% 29.95 in 6.2 mi Variable 2.3 mph - N/A   Mostly Cloudy
5:20 PM 77.0 °F - 62.6 °F 61% 29.95 in 6.2 mi NE 3.5 mph - N/A   Mostly Cloudy
5:50 PM 78.8 °F - 62.6 °F 57% 29.95 in 6.2 mi ENE 4.6 mph - N/A   Mostly Cloudy
6:20 PM 77.0 °F - 62.6 °F 61% 29.95 in 6.2 mi ENE 4.6 mph - N/A   Mostly Cloudy
6:50 PM 77.0 °F - 64.4 °F 65% 29.95 in 6.2 mi Variable 2.3 mph - N/A   Mostly Cloudy
7:20 PM 77.0 °F - 64.4 °F 65% 29.95 in 6.2 mi Calm Calm - N/A   Scattered Clouds
7:50 PM 77.0 °F - 64.4 °F 65% 29.98 in 6.2 mi Variable 1.2 mph - N/A   Scattered Clouds
8:20 PM 75.2 °F - 64.4 °F 69% 29.98 in 6.2 mi SW 4.6 mph - N/A   Scattered Clouds
8:50 PM 73.4 °F - 64.4 °F 73% 29.98 in 6.2 mi SSW 4.6 mph - N/A   Scattered Clouds
9:00 PM 74 °F - 64 °F 63% 29.98 in 12 mi SSW 4.6 mph - -   Partly Cloudy
9:20 PM 73.4 °F - 64.4 °F 73% 29.98 in 6.2 mi SSW 4.6 mph - N/A   Scattered Clouds
9:50 PM 75.2 °F - 62.6 °F 65% 29.95 in 6.2 mi SSW 4.6 mph - N/A   Scattered Clouds
10:20 PM 75.2 °F - 60.8 °F 61% 29.95 in 6.2 mi SSW 6.9 mph - N/A   Scattered Clouds
10:50 PM 75.2 °F - 60.8 °F 61% 29.95 in 6.2 mi SW 5.8 mph - N/A   Scattered Clouds
11:20 PM 75.2 °F - 60.8 °F 61% 29.95 in 6.2 mi WSW 5.8 mph - N/A   Scattered Clouds
11:50 PM 75.2 °F - 62.6 °F 65% 29.95 in 6.2 mi WSW 5.8 mph - N/A   Mostly Cloudy